Theta_e
340 341 340 335 336 335 334 333 335 336 337 338 338 337 337 339 338 338 338 339 339 339 339 340 338 339 332 335 336 337 338 339 339 338 338 338 337 338 332 334 329 333 334
341 341 341 341 336 337 334 333 332 334 335 337 339 336 337 337 337 338 338 336 338 337 335 334 332 330 333 337 337 336 337 337 336 337 337 337 337 334 333 329 329 330 333
342 341 341 340 339 338 336 334 333 333 334 336 336 339 338 337 337 337 336 336 335 333 334 336 334 332 334 336 336 335 336 335 335 336 335 336 334 330 330 329 333 335 331
344 342 340 339 339 338 338 335 334 332 334 334 336 336 336 337 337 337 336 335 335 335 336 336 336 335 334 334 334 332 335 333 332 333 332 334 331 332 331 331 332 332 333
343 341 340 337 339 339 339 336 335 335 333 332 332 333 333 334 334 334 334 334 334 334 334 333 332 330 331 331 331 332 331 329 327 328 329 329 331 331 333 331 331 329 327
343 342 341 337 337 337 335 335 336 335 334 333 333 333 334 334 334 334 334 334 333 332 332 332 332 332 332 333 331 329 328 329 327 328 329 330 332 330 331 332 330 330 328
344 341 340 338 335 334 337 336 335 335 334 334 333 333 333 332 332 330 329 330 331 331 331 331 332 332 332 331 330 329 327 327 330 330 329 331 330 329 327 327 325 324 324
344 342 340 339 336 337 337 337 335 334 331 332 334 333 332 330 330 330 331 328 328 328 328 327 324 325 325 323 323 322 321 322 328 330 329 329 328 326 324 322 321 320 319
344 342 339 338 337 337 337 337 335 333 330 325 327 329 332 330 330 328 329 328 327 326 325 324 322 322 323 323 320 318 316 315 311 310 309 309 309 309 310 311 313 314 313
340 343 339 337 336 336 335 336 334 332 329 326 324 327 330 330 329 328 327 327 327 326 322 320 319 319 320 318 317 315 313 312 312 313 314 315 314 315 316 315 312 309 309
337 341 340 338 336 336 335 335 333 331 331 330 325 324 327 327 326 325 325 325 322 319 315 314 314 314 316 317 315 312 314 316 314 313 312 311 312 312 313 312 311 307 306
338 338 338 338 336 335 334 333 330 329 330 327 323 322 322 322 320 319 317 317 318 312 311 312 313 313 313 314 316 315 310 312 313 313 312 311 309 308 308 306 304 303 302
331 333 334 333 331 329 332 332 329 325 324 321 320 320 319 319 320 319 319 317 316 314 315 315 315 312 310 309 308 307 306 309 310 308 306 304 303 302 302 300 300 301 300
329 325 323 324 325 326 325 322 321 320 319 318 318 318 316 315 316 316 316 314 313 309 307 304 304 304 304 304 303 302 303 303 304 305 304 303 301 300 299 298 298 298 298
324 323 321 319 319 319 318 316 316 314 312 312 312 310 309 305 304 302 301 303 304 305 304 304 304 304 303 303 303 302 302 302 302 302 301 300 300 299 298 298 298 298 298
319 317 316 315 314 313 312 306 301 300 299 299 298 298 299 299 298 299 302 304 304 304 304 304 303 303 302 302 302 301 301 301 300 301 300 300 299 298 297 297 297 297 298
310 308 306 304 302 301 301 301 301 301 301 300 298 297 297 298 299 302 303 303 302 302 302 302 302 302 301 301 301 301 300 300 301 300 300 299 298 297 297 296 297 297 298
307 308 308 307 307 306 306 306 306 305 302 300 298 297 299 300 301 301 301 301 301 300 300 300 301 302 301 301 300 300 299 299 298 299 298 297 297 296 296 296 297 297 297
310 310 309 309 308 307 307 307 307 306 304 303 301 300 299 300 300 300 300 300 299 299 299 299 298 298 298 298 297 297 298 298 297 297 296 296 295 295 295 295 296 296 298
312 310 309 309 309 308 308 308 307 307 305 304 303 301 301 300 300 299 299 299 299 298 298 298 298 297 296 296 296 296 297 297 297 296 296 295 294 294 295 295 295 296 297
312 311 310 310 309 309 309 308 308 307 305 304 303 302 301 301 299 299 298 298 298 298 298 298 297 297 296 296 296 296 296 297 296 296 296 294 294 294 294 294 294 295 296
312 311 312 311 311 311 310 309 308 307 306 304 300 299 300 299 299 298 299 299 298 298 298 297 297 297 296 296 297 296 296 297 296 296 295 294 291 293 294 294 295 295 294
313 313 312 312 312 310 308 309 307 307 305 303 302 299 299 299 299 299 299 299 298 298 298 298 298 297 297 297 297 297 297 297 297 296 295 295 291 293 294 294 294 294 294
312 312 310 311 311 310 310 308 306 306 305 303 302 300 299 299 299 299 299 299 298 298 298 297 297 296 295 295 295 295 296 296 295 294 293 290 290 293 293 294 293 293 293
309 311 310 310 311 309 309 308 307 306 304 303 302 301 300 300 299 299 299 299 298 299 297 297 297 297 295 293 292 291 291 289 289 289 289 289 290 293 293 293 293 292 293
308 309 309 309 309 309 308 308 308 306 304 303 302 301 300 300 300 300 300 299 299 299 298 298 298 298 296 295 296 294 292 290 290 292 292 288 291 292 293 292 291 292 293
Wind_Speed
1 3 8 7 6 8 8 11 12 10 9 8 6 4 2 7 11 12 12 13 13 13 14 17 17 18 14 14 9 19 9 6 6 8 8 12 13 13 6 7 10 13 12
4 2 6 8 8 10 6 10 9 9 10 10 7 6 7 8 12 13 13 13 14 13 14 16 18 22 18 10 5 5 7 8 7 8 11 12 12 9 7 11 14 14 12
4 3 2 4 8 8 7 7 8 7 7 6 8 7 7 8 9 8 8 14 16 18 17 16 17 17 15 9 9 7 6 3 4 5 8 8 7 10 13 13 11 15 13
3 1 2 1 3 4 5 4 6 7 8 8 10 10 10 8 6 7 11 17 19 18 17 15 13 9 8 12 11 8 7 7 4 2 7 8 6 13 16 13 13 11 13
5 2 4 1 4 1 3 5 6 7 9 11 10 11 11 9 8 6 4 4 7 10 12 12 12 11 7 8 11 12 9 4 1 3 6 10 13 9 9 9 10 12 11
6 5 6 3 7 3 8 9 9 9 9 7 6 4 5 5 5 4 3 2 2 3 6 7 7 9 9 7 8 9 9 6 5 8 8 10 13 16 15 12 9 13 11
10 8 8 9 9 7 12 12 10 10 9 8 7 6 4 5 6 4 4 5 5 6 5 6 8 8 9 9 6 11 11 11 11 11 11 15 15 13 10 12 12 13 13
10 10 13 11 16 15 13 12 11 9 8 9 8 5 5 7 7 6 6 2 4 4 4 3 4 4 5 4 2 4 3 2 3 5 6 8 7 6 7 8 12 11 11
11 12 18 19 22 19 16 15 13 9 6 5 5 6 7 8 6 5 3 2 1 4 4 4 4 4 3 3 2 4 5 6 6 5 4 3 2 3 5 5 6 6 9
12 15 22 23 23 20 16 16 14 9 4 1 5 7 10 12 11 8 5 3 5 6 8 9 9 7 5 4 3 5 5 7 5 3 0 2 4 6 6 8 7 7 8
6 13 22 26 24 20 19 16 10 6 2 2 5 9 12 14 14 10 9 7 8 11 11 11 9 7 6 4 2 1 2 2 2 3 3 1 4 8 9 9 8 7 10
14 20 24 22 18 21 17 12 8 4 3 6 7 9 11 12 13 14 8 4 6 9 10 8 6 4 2 3 5 2 2 1 3 5 4 2 4 8 11 13 10 9 5
17 21 20 22 24 22 17 11 10 8 7 9 9 10 9 9 9 9 6 4 8 8 6 4 3 5 4 3 3 4 4 3 3 2 3 3 4 6 7 7 5 7 2
14 17 19 22 21 19 17 17 15 14 14 14 14 14 14 14 13 12 10 9 8 8 10 14 16 14 13 14 13 11 7 6 2 3 4 3 4 6 7 8 6 3 2
20 20 20 21 21 21 21 20 17 17 14 13 13 12 11 11 12 12 13 15 15 15 14 14 12 11 11 11 11 10 10 10 5 7 6 4 4 5 6 8 1 4 4
23 22 22 21 20 20 20 24 22 20 17 14 13 11 12 11 12 14 17 17 16 14 12 10 7 3 2 4 5 6 7 10 6 3 4 6 6 6 7 4 5 4 4
26 25 25 24 23 23 23 23 25 22 17 15 13 13 14 15 17 18 18 16 11 8 8 11 11 10 7 3 0 3 5 6 2 1 4 5 7 7 6 6 6 7 7
24 24 23 25 23 22 21 20 19 20 20 21 18 16 16 18 19 18 16 14 12 5 3 2 2 2 0 3 5 6 7 2 6 4 4 5 6 7 5 6 7 10 11
21 17 13 13 16 14 14 13 14 11 13 16 18 19 17 15 15 14 12 10 8 4 4 4 4 4 4 7 6 3 4 4 6 4 5 8 7 7 5 8 6 8 7
18 12 13 14 11 9 10 9 4 3 10 10 10 12 10 10 10 10 8 5 4 3 3 5 5 5 5 4 6 3 4 3 2 2 8 8 6 5 7 7 6 5 6
11 9 11 9 11 8 5 5 4 6 7 5 2 1 6 8 12 9 3 1 4 5 4 5 4 2 2 5 10 2 2 4 6 8 12 9 5 3 6 8 9 3 6
5 7 13 13 7 3 4 6 4 5 4 1 3 10 13 8 8 3 2 2 1 2 3 4 4 1 5 5 5 5 1 6 8 9 10 11 6 3 6 7 3 5 6
2 4 12 11 8 3 2 3 6 9 6 2 4 9 9 5 3 3 2 3 2 2 2 5 1 3 3 4 6 4 8 11 14 14 14 15 5 4 4 4 4 7 4
3 6 7 10 8 7 7 3 8 5 9 5 6 6 7 3 3 5 5 6 3 2 3 3 5 8 10 12 11 8 8 11 13 16 17 11 3 7 1 3 6 8 6
3 2 6 5 8 7 6 5 9 10 11 9 7 7 6 6 6 7 5 4 2 2 9 6 6 9 9 10 9 7 9 11 10 9 7 6 1 6 2 6 9 3 1
3 7 5 2 4 11 11 7 10 13 6 4 9 9 7 7 6 9 10 8 7 5 9 7 9 7 6 6 13 14 10 7 6 7 7 2 4 3 5 10 5 2 5
Wind_Direction
207 11 18 18 44 26 41 41 46 46 42 54 91 85 151 178 188 200 202 200 201 214 208 196 203 195 204 234 249 235 223 236 244 231 235 218 216 222 237 223 211 226 221
151 55 17 345 336 5 20 30 36 41 41 62 98 100 113 145 153 160 172 183 192 182 184 184 188 198 199 226 200 217 232 245 249 252 207 227 234 214 198 220 224 214 221
134 74 330 328 349 4 27 47 34 43 37 57 84 105 132 138 148 172 180 177 176 182 185 186 195 203 207 199 173 166 197 240 284 246 226 223 197 235 232 233 227 213 212
204 266 148 329 339 344 11 44 44 51 70 98 95 92 95 110 129 146 173 169 170 176 185 181 171 164 170 203 210 189 167 161 85 276 234 208 229 241 230 227 222 210 218
234 278 160 78 93 66 55 74 95 72 96 102 98 100 97 106 110 115 125 164 196 213 216 220 221 214 232 212 213 219 235 246 262 271 256 249 233 228 218 199 205 222 221
250 250 218 162 136 134 93 102 112 104 121 134 127 111 96 105 109 114 111 133 174 209 203 194 194 204 208 205 210 226 230 223 251 252 236 232 215 213 230 195 206 203 202
236 227 225 166 134 123 140 135 128 124 132 129 126 122 131 132 120 105 109 137 145 139 159 187 200 209 215 224 250 279 279 284 276 240 216 204 195 194 197 200 200 217 227
181 199 194 168 151 166 164 157 149 136 129 138 146 159 152 151 137 136 136 110 158 162 145 130 86 93 100 90 140 191 197 173 109 111 149 164 199 213 217 217 217 221 236
200 199 185 175 178 181 179 171 167 173 156 133 147 157 156 154 155 176 166 114 89 144 129 139 141 169 193 175 171 169 149 138 111 105 103 117 154 204 214 219 221 210 216
207 190 188 188 192 191 189 182 180 190 196 127 170 169 159 162 168 176 192 218 217 188 166 164 159 168 174 151 146 131 125 113 101 97 60 288 264 251 253 263 257 252 244
192 192 191 191 193 200 186 174 181 193 187 168 164 165 168 170 167 184 198 187 176 159 158 156 158 169 186 174 167 251 256 195 120 100 78 81 295 295 314 318 311 317 287
176 176 177 181 187 176 175 168 165 187 199 163 155 158 165 165 157 168 167 151 154 164 146 140 142 156 182 240 271 285 108 6 312 306 301 274 336 326 327 336 312 294 286
152 147 155 162 163 154 151 161 163 134 132 131 126 126 132 131 162 190 212 172 152 157 163 161 102 70 61 39 349 347 355 18 34 56 86 57 13 336 334 321 318 306 237
139 133 128 129 131 129 127 121 117 115 120 118 118 118 114 112 112 114 116 117 114 101 92 80 76 70 64 54 49 47 51 57 28 314 317 349 348 333 335 352 334 306 299
116 114 115 115 117 118 117 112 113 111 107 109 113 115 114 116 114 112 109 107 99 89 83 79 72 74 69 63 50 43 32 21 47 54 52 40 355 337 334 346 337 341 319
113 112 110 109 108 108 111 109 101 94 94 95 99 101 109 113 113 113 108 100 94 97 102 114 120 102 77 87 69 49 35 26 65 41 359 341 350 346 346 10 13 341 310
105 104 99 96 96 97 97 94 88 85 83 87 92 98 106 110 110 112 113 107 103 90 81 83 81 73 81 99 292 280 310 322 327 345 330 348 342 339 341 359 357 333 319
101 98 97 92 91 90 88 80 71 74 81 82 91 101 109 113 114 112 111 117 121 98 53 72 117 180 255 279 281 296 317 298 324 294 1 341 329 337 351 355 350 350 351
98 92 90 94 91 90 93 82 69 71 87 89 90 95 103 112 118 114 109 114 115 98 47 23 17 350 306 312 314 351 40 19 34 34 1 337 344 339 336 345 334 351 1
115 109 118 112 108 102 105 89 66 93 119 109 105 115 124 125 123 125 123 130 160 140 132 71 357 355 17 25 20 98 65 356 177 268 308 321 336 333 343 333 319 324 340
151 128 124 123 141 149 175 183 160 97 136 93 27 166 137 121 137 132 142 202 235 239 239 205 52 33 20 345 343 247 86 328 266 289 314 315 300 315 331 317 310 314 340
159 148 145 162 194 224 219 206 194 189 192 167 64 140 137 125 156 189 202 242 283 256 309 177 177 328 344 338 20 8 320 315 285 300 317 343 324 282 339 316 310 349 333
153 177 184 207 227 252 231 189 158 156 203 158 127 123 158 167 255 216 185 222 250 270 346 84 63 205 259 282 293 303 288 288 295 301 308 320 308 236 317 312 339 338 331
181 287 229 237 212 197 210 208 145 153 168 180 188 157 162 202 232 237 249 251 264 210 156 214 272 277 292 290 277 278 296 295 298 299 306 318 278 253 171 333 322 309 312
355 85 227 226 231 205 227 218 197 189 195 200 204 227 232 244 244 261 245 268 169 206 202 264 272 304 342 54 21 332 306 303 308 316 323 327 174 160 29 318 299 293 62
248 327 247 218 291 245 241 219 221 198 205 228 214 231 237 249 272 249 238 269 196 246 239 266 299 339 2 8 9 10 1 353 0 11 354 338 182 132 53 7 4 73 20